Location: Eferding
(48.3167°N, 14.0167°E)
Time: 08:02:39
(UTC+00:00)

BREEZE-M DEB (TANK) - Pass Details

Date: 12 November 2019
Orbit: 334 x 16596 km, 49.4° (Epoch: 13 December)

Event Time Altitude Azimuth Distance (km) Brightness Sun altitude
Rises 18:19:59 0° 276° (W) 4,844 8.4 -28.4°
Reaches altitude 10° 18:24:30 10° 278° (W) 2,652 6.7 -29.1°
Enters shadow 18:27:54 33° 284° (WNW) 955 4.0 -29.7°
